Portada
METAR-TAF:

METAR-TAF

Aeropuertos :

Base Aérea de Valencia-Bétera

Valencia, España

latitud: 39-37-26N, longitud: 0-28-26W, altitud: 127 m

Observación

El informe se hizo hace 10 minutos, a las 01:00 UTC
Viento 5 kt del noreste, variando entre norte-noroeste y este-sureste
Temperatura 12°C
Humedad 82%
Presión 1025 hPa
Visibilidad 10 km o más

METAR: LEBT 020100Z AUTO 04005KT 330V110 9999 ////// 12/09 Q1025

Hora: 02:10 (01:10 UTC)


TAF: falta

Observaciones y pronósticos meteorológicos de más de 4000 aeropuertos (mensajes METAR y TAF).

Los puntos amarillos y rojos representan las estaciones disponibles.

Ponga el ratón en el punto deseado para ver el nombre de la estación.

Haga clic para ver las observaciones y los pronósticos meteorológicos.

Para cambiar el mapa : haga clic en los botones verdes con una cruz de color negro para hacer un zoom, en el botón verde con un guión para alejar o en las flechas verdes para mapas adyacentes.


METAR-TAF: